This is the latest recevied weather packets stored in our database for station/object K1PM-WX. If no packets are shown the sender has not sent any weather packets the latest 1 day(s).
| Time | Temp. | Humidity | Pressure | Rain* | Wind** | Luminosity | Snow |
|---|---|---|---|---|---|---|---|
| 1778025237 | 10° C | 99% | 1031 hPa | 2.54 mm | 1.34 m/s, 225° | - | - |
| 1778024936 | 10° C | 99% | 1031 hPa | 2.29 mm | 0.45 m/s, 180° | - | - |
| 1778024636 | 10° C | 99% | 1031 hPa | 2.29 mm | 0.45 m/s, 225° | - | - |
| 1778024336 | 10° C | 99% | 1031 hPa | 2.03 mm | 0.89 m/s, 225° | - | - |
| 1778024038 | 10° C | 99% | 1031 hPa | 2.54 mm | 0 m/s | - | - |
| 1778023736 | 10° C | 99% | 1031 hPa | 2.29 mm | 0 m/s | - | - |
| 1778023436 | 10° C | 99% | 1031 hPa | 2.29 mm | 0.89 m/s, 90° | - | - |
| 1778023137 | 10° C | 99% | 1031 hPa | 2.29 mm | 0.89 m/s, 45° | - | - |
| 1778022837 | 10° C | 99% | 1031 hPa | 2.79 mm | 0.45 m/s, 90° | - | - |
| 1778022537 | 10° C | 99% | 1031 hPa | 2.54 mm | 0 m/s | - | - |
| 1778022237 | 10° C | 99% | 1031 hPa | 3.05 mm | 0.89 m/s, 270° | - | - |
| 1778021937 | 10° C | 99% | 1031 hPa | 2.54 mm | 1.79 m/s, 270° | - | - |
| 1778021636 | 10° C | 99% | 1031 hPa | 3.05 mm | 0.45 m/s, 315° | - | - |
| 1778021336 | 10° C | 99% | 1031 hPa | 2.79 mm | 0.89 m/s, 315° | - | - |
| 1778021037 | 10° C | 99% | 1031 hPa | 3.05 mm | 0.45 m/s, 270° | - | - |
| 1778020741 | 10° C | 99% | 1031 hPa | 2.79 mm | 1.34 m/s, 0° | - | - |
| 1778020437 | 10° C | 99% | 1031 hPa | 3.05 mm | 1.79 m/s, 315° | - | - |
| 1778020137 | 10° C | 99% | 1031 hPa | 2.79 mm | 1.34 m/s, 23° | - | - |
| 1778019836 | 10° C | 99% | 1031 hPa | 3.3 mm | 0.89 m/s, 0° | - | - |
| 1778019537 | 10° C | 99% | 1031 hPa | 3.05 mm | 1.34 m/s, 293° | - | - |
| 1778019238 | 10° C | 99% | 1031 hPa | 3.56 mm | 1.79 m/s, 270° | - | - |
| 1778018936 | 10° C | 99% | 1031 hPa | 3.3 mm | 1.34 m/s, 315° | - | - |
| 1778018336 | 10.56° C | 99% | 1031 hPa | 3.81 mm | 2.68 m/s, 270° | - | - |
| 1778018037 | 10.56° C | 99% | 1031 hPa | 3.81 mm | 1.34 m/s, 293° | - | - |
| 1778017736 | 11.11° C | 99% | 1031 hPa | 3.56 mm | 1.79 m/s, 270° | - | - |
* Rain latest hour (hover to see other rain measurements)
** Current wind speed in m/s (hover to see current wind gust speed)